Погода в Трухильо

Перу     8°06′46″S   79°02′04″W
темп.,
°C
ветер,
м/с
пор.,
м/с
влажн.,
%
обл.,
%
осадки,
мм/ч
давл.,
гПа
погр.,
м
28 января, пт
пт2801:00+20юз2286100 0.0 1014239
04:00+19ююз2192100 0.0 1013164
07:00+18ю1192100 0.0 1014232
10:00+22ююз2174100 0.0 1014564
13:00+23юз4269100 0.0 1013647
16:00+21ююз3274100 0.0 1011410
19:00+20ююз1180100 0.0 1013221
22:00+20ю2281100 0.0 1016183
29 января, сб
сб2901:00+19ю1183100 0.0 1014113
04:00+19ююз118492 0.0 101369
07:00+19ююз118354 0.0 101495
10:00+24юз316078 0.0 1014761
13:00+26юз5354100 0.0 10131033
16:00+23ююз436596 0.0 1012609
19:00+21ююз2272100 0.0 1013288
22:00+20ю2275100 0.0 1015198
30 января, вс
вс3001:00+20ю117894 0.0 1014116
04:00+19ююз118129 0.0 101388
07:00+19юз118283 0.0 1015109
10:00+24юз316072 0.0 1015671
13:00+25ююз435698 0.0 1013854
16:00+24ююз436156 0.0 1011651
19:00+20ю32747 0.0 1013280
22:00+20ю227888 0.0 1015170
31 января, пн
пн3101:00+19ююз118069 0.0 1013118
04:00+19ю118478 0.0 101378
07:00+19з01815 0.0 101498
10:00+24юз325920 0.0 1014740
13:00+26ююз535133 0.0 10121032
16:00+24ююз546099 0.0 1010680
19:00+20ююз227510 0.0 1012269
22:00+20ю1176100 0.0 1013163
1 февраля, вт
вт101:00+20ююз1177100 0.0 1012123
04:00+19ююз1181100 0.0 101299
07:00+19ю117924 0.0 1013132
10:00+24юз32579 0.0 1013814
13:00+26ююз535165 0.0 10111064
16:00+23ююз5459100 0.0 1010676
19:00+21ю3270100 0.0 1011341
22:00+20ю2271100 0.0 1013207